Weather Roundup
Issued by NWS Chicago, IL

Home | Current Version | Previous Version | Graphics & Text | Print | Product List | Glossary On
Versions: 1 2 3 4 5 6 7 8 9 10 11 12 13 14 15 16 17 18 19 20 21 22 23 24 25 26 27 28 29 30 31 32 33 34 35 36 37 38 39 40 41 42 43 44 45 46 47 48 49 50
000
NZUS59 KLOT 031708
HRRLOT

CHICAGO AREA WEATHER ROUNDUP
NATIONAL WEATHER SERVICE CHICAGO/ROMEOVILLE IL
1200 PM CDT WED JUN 03 2015

NOTE: "FAIR" INDICATES FEW OR NO CLOUDS BELOW 12,000 FEET WITH NO
SIGNIFICANT WEATHER AND/OR OBSTRUCTIONS TO VISIBILITY.

* THESE STATIONS ARE NOT UNDER NWS QUALITY CONTROL. THEY ALSO MAY NOT
  REPORT WEATHER SUCH AS PRECIPITATION OR FOG.

ILZ005-006-012>014-019>023-031800-
NORTHEAST ILLINOIS

CITY           SKY/WX    TMP DP  RH WIND       PRES   REMARKS
OHARE          MOSUNNY   71  54  54 S7        30.04F
MIDWAY         MOSUNNY   72  53  51 S7        30.05F
AURORA         SUNNY     73  55  53 SE10      30.04F
LANSING*       MOSUNNY   69  51  53 SE3       30.06F
JOLIET*        MOSUNNY   73  57  58 S6        30.05F
WAUKEGAN       SUNNY     64  52  64 E9        30.06S
DUPAGE AIRPORT SUNNY     71  54  54 VRB3      30.04F
WHEELING       SUNNY     71  52  50 SE7       30.06S
KANKAKEE*      MOSUNNY   70  57  63 SE6       30.06F
MORRIS*        MOSUNNY   74  56  53 SE7       30.03F
LEWIS AIRPORT* SUNNY     71  54  54 S8        30.05F
NORTHERLY IS     N/A     60  53  77 E8          N/A
$$

WIZ051-052-058>065-066-070>072-031800-
SOUTHEAST WISCONSIN

CITY           SKY/WX    TMP DP  RH WIND       PRES   REMARKS
MILWAUKEE      MOSUNNY   65  51  60 SE12      30.06S
KENOSHA*       SUNNY     68  54  60 E12       30.05F
RACINE*        SUNNY     63  49  60 SE9       30.08S
BURLINGTON     MOSUNNY   70  52  52 S3        30.03F
WAUKESHA       SUNNY     68  52  56 SE7       30.04F
WEST BEND      SUNNY     70  50  49 SE8       30.04S
$$

INZ001>003-010>013-019-020-031800-
NORTHWEST INDIANA

CITY           SKY/WX    TMP DP  RH WIND       PRES   REMARKS
GARY*          MOSUNNY   70  52  52 S6        30.06F
MICHIGAN CITY* NOT AVBL
RENSSELAER*    NOT AVBL
VALPARAISO     MOSUNNY   70  53  54 S9        30.07F
$$

LMZ740>746-031800-
SOUTHERN LAKE MICHIGAN

STATION/POSITION TIME  SKY/WX   TEMP WIND        PRES    VSBY
                                AIR  DIR/SP/G
                 (UTC)          (F)  (DEG/KT/KT) (MB)    (MI)
HARRISON CRIB    1600            57  110/ 13/ 13   N/A
BURNHAM HARBOR   1700            60   80/  7/  8   N/A
CALUMET HARBOR   1600            63   60/  9/ 10   N/A
BURNS HARBOR     1600                210/  4/  9 1019.0S
MICHIGAN CITY    1600            61  350/  5/  7   N/A
$$

ABBREVIATIONS USED IN REMARKS
   TC - TEMPERATURE IN CELSIUS
  WCI - WIND CHILL INDEX
   HX - HEAT INDEX
  VSB - VISIBILITY
$$



USA.gov is the U.S. government's official web portal to all federal, state and local government web resources and services.